Time[GMT],current_u[cm/s](10m),current_v[cm/s](10m),current_u[cm/s](14m),current_v[cm/s](14m),current_u[cm/s](18m),current_v[cm/s](18m),current_u[cm/s](22m),current_v[cm/s](22m),current_u[cm/s](26m),current_v[cm/s](26m),current_u[cm/s](30m),current_v[cm/s](30m),current_u[cm/s](34m),current_v[cm/s](34m),current_u[cm/s](38m),current_v[cm/s](38m),current_u[cm/s](42m),current_v[cm/s](42m),current_u[cm/s](46m),current_v[cm/s](46m),current_u[cm/s](50m),current_v[cm/s](50m),current_u[cm/s](54m),current_v[cm/s](54m),current_u[cm/s](58m),current_v[cm/s](58m),current_u[cm/s](62m),current_v[cm/s](62m),current_u[cm/s](66m),current_v[cm/s](66m),current_u[cm/s](70m),current_v[cm/s](70m),current_u[cm/s](74m),current_v[cm/s](74m),current_u[cm/s](78m),current_v[cm/s](78m),current_u[cm/s](82m),current_v[cm/s](82m),current_u[cm/s](86m),current_v[cm/s](86m),current_u[cm/s](90m),current_v[cm/s](90m)
2012-04-13 16:00,-2.54,1.71,-1.71,2.08,-2.48,3.83,-2.69,5.13,-5.04,6.26,-6.28,6.18,-8.51,4.95,-9.23,2.93,-10.81,2.64,-10.96,3.43,-9.36,5.31,-7.70,6.36,-6.47,8.12,-5.63,9.43,-4.91,9.14,-5.27,8.29,-5.61,6.40,-5.75,5.51,-5.38,4.69,-3.26,4.63,-2.26,4.11
2012-04-13 17:00,8.75,11.40,6.20,12.16,2.37,12.30,-0.42,11.83,-2.05,10.05,-1.80,10.24,-2.51,11.48,-4.77,12.65,-6.76,12.64,-10.18,10.19,-11.17,9.03,-11.73,9.80,-10.63,11.93,-9.51,12.71,-9.29,12.99,-8.91,13.11,-9.00,13.08,-8.88,13.02,-8.44,12.32,-6.60,10.49,-4.96,7.65
2012-04-13 18:00,15.93,13.90,12.11,14.68,11.27,15.35,9.44,15.82,8.44,14.66,6.47,13.93,3.71,13.05,1.76,13.58,1.75,15.25,4.14,16.96,6.96,17.65,8.11,18.02,8.14,18.24,7.47,17.71,6.10,16.75,5.31,14.61,4.77,14.01,4.48,14.24,3.40,15.99,3.28,16.69,2.77,16.63
2012-04-13 19:00,11.68,8.14,8.46,8.68,5.83,10.36,2.92,10.90,1.27,10.48,-1.64,10.08,-3.36,11.52,-6.12,13.27,-5.21,13.35,-3.13,12.44,-0.80,11.71,2.24,12.05,5.49,13.72,7.06,15.37,7.59,17.01,7.60,17.96,7.51,18.56,7.49,19.61,8.10,20.33,7.91,19.95,7.17,19.29
2012-04-13 20:00,12.38,5.94,9.61,7.06,6.95,6.84,4.25,5.76,1.39,7.48,-1.13,10.77,-3.35,12.16,-4.51,13.15,-3.86,12.42,-1.85,11.38,0.66,9.76,2.66,10.40,4.83,11.51,5.71,13.68,5.99,13.46,5.82,12.67,5.36,13.15,5.13,13.19,6.36,12.32,6.82,11.20,6.21,10.80
2012-04-13 21:00,1.38,-5.96,-4.36,-4.75,-7.45,-3.95,-10.76,-3.12,-11.81,-3.77,-11.15,-4.19,-10.85,-4.83,-9.88,-3.57,-9.14,-2.60,-8.68,-1.41,-8.43,-1.54,-7.03,-2.98,-4.54,-3.86,-2.64,-3.57,-1.02,-3.05,-0.50,-2.37,-0.23,-2.91,0.82,-2.57,1.62,-2.11,2.57,-4.11,3.08,-6.36
2012-04-13 22:00,4.58,-15.33,2.49,-15.69,0.97,-12.92,-3.20,-12.67,-5.12,-11.92,-4.15,-10.35,-3.67,-7.89,-3.92,-7.44,-3.26,-7.86,-1.84,-7.72,-0.71,-8.62,0.02,-8.60,0.72,-8.17,1.49,-7.29,2.60,-7.15,3.02,-6.17,2.63,-7.24,3.80,-6.97,5.53,-8.10,4.80,-10.12,4.85,-11.26
2012-04-13 23:00,-2.71,-16.82,-5.00,-14.93,-5.90,-11.12,-8.82,-9.85,-9.57,-8.51,-8.24,-8.40,-6.24,-8.40,-4.18,-7.95,-2.47,-7.40,-0.93,-8.27,-0.03,-10.09,0.75,-10.57,1.98,-10.81,3.08,-11.61,4.59,-12.08,5.48,-11.58,6.56,-11.34,5.85,-12.73,7.01,-13.40,6.24,-13.96,5.63,-14.37
2012-04-14 00:00,-13.38,-30.09,-15.11,-26.34,-15.03,-25.27,-13.11,-26.02,-13.03,-24.31,-13.47,-22.25,-11.32,-22.40,-9.32,-21.45,-9.79,-21.28,-9.72,-20.53,-7.96,-21.75,-6.47,-21.49,-5.70,-22.60,-5.43,-24.09,-5.01,-25.74,-4.21,-27.59,-3.50,-28.51,-4.59,-27.39,-4.84,-27.26,-7.68,-26.91,-6.86,-24.55
2012-04-14 01:00,-11.50,-28.44,-12.83,-26.24,-11.16,-21.93,-8.81,-20.76,-5.53,-21.50,-3.39,-19.98,-4.70,-18.50,-8.16,-17.19,-9.34,-18.41,-8.33,-18.30,-6.80,-20.12,-6.01,-22.28,-4.77,-23.88,-4.51,-24.01,-4.62,-24.99,-6.67,-24.17,-6.64,-24.27,-6.72,-25.66,-6.65,-25.53,-5.96,-26.05,-4.69,-23.12
2012-04-14 02:00,-0.92,-27.69,1.49,-24.40,3.78,-23.04,4.07,-22.95,5.13,-21.67,4.08,-19.69,1.33,-17.00,-0.89,-14.98,-1.26,-14.78,-0.80,-15.90,0.18,-18.00,-0.22,-19.38,-0.59,-21.50,-0.92,-22.76,-3.02,-23.74,-3.76,-24.40,-4.59,-24.77,-4.33,-24.26,-3.96,-23.10,-1.83,-21.89,-0.88,-19.60
2012-04-14 03:00,5.68,-13.51,6.27,-11.75,7.52,-10.72,6.48,-10.11,6.18,-8.84,5.72,-7.41,5.53,-8.10,4.42,-7.93,3.19,-7.38,2.67,-6.71,2.41,-6.58,0.64,-6.62,-0.05,-6.74,-0.94,-6.60,-0.69,-7.04,-0.76,-7.80,0.19,-7.18,0.17,-6.14,1.32,-5.46,2.76,-6.36,3.60,-5.04
2012-04-14 04:00,,,,,,,,,,,,,,,,,,,,,,,,,,,,,,,,,,,,,,,,,,
2012-04-14 05:00,5.25,-4.94,4.46,-2.46,4.57,-0.85,6.23,0.20,6.73,1.94,6.47,4.06,6.48,5.01,6.53,6.18,6.51,6.91,6.43,7.82,6.10,9.19,5.42,8.66,5.69,7.49,5.18,7.11,4.14,7.09,5.40,7.08,6.03,6.44,8.27,6.00,8.85,4.19,9.96,2.02,10.04,1.10
2012-04-14 06:00,1.63,1.15,-0.21,3.29,0.94,3.97,1.92,4.18,3.80,5.20,4.80,6.99,5.46,9.20,5.68,11.47,5.85,12.26,5.67,13.15,6.33,13.04,7.13,13.19,7.25,13.13,7.31,12.30,7.24,12.18,7.77,11.82,8.37,11.59,8.21,11.12,7.89,10.81,7.07,11.39,6.26,11.97
2012-04-14 07:00,7.19,3.45,6.17,3.02,4.59,2.72,2.98,3.16,2.59,4.71,2.66,7.46,3.85,9.00,5.81,9.10,7.66,10.21,8.44,12.04,10.32,13.37,9.43,14.87,8.65,16.30,7.72,17.58,6.72,18.41,7.45,18.75,8.06,19.16,9.32,18.82,9.72,18.22,11.80,17.62,13.21,16.18
2012-04-14 08:00,4.71,6.96,4.35,6.43,3.91,6.18,3.99,5.58,2.10,5.60,2.48,6.04,1.08,8.11,-2.96,11.23,-4.78,11.70,-4.09,8.88,-1.59,6.95,1.15,5.93,3.63,6.72,4.18,5.64,4.18,5.64,6.32,7.16,7.66,8.22,9.11,9.94,11.26,9.79,11.51,9.66,11.83,9.65
2012-04-14 09:00,-0.96,1.37,-1.09,1.12,-0.52,1.62,-1.66,1.25,-3.07,2.38,-3.32,7.13,-3.96,9.44,-4.76,6.04,-3.38,5.01,-4.64,3.35,-4.62,2.62,-4.05,2.17,-3.40,1.12,-3.91,1.06,-3.15,0.67,-1.62,-0.20,-0.43,-1.29,0.59,-0.55,3.04,0.66,5.77,1.32,7.70,0.88
2012-04-14 10:00,-7.35,-11.16,-8.22,-11.75,-7.96,-11.57,-8.91,-11.56,-8.26,-10.61,-7.20,-8.70,-4.93,-7.24,-5.19,-7.74,-4.06,-8.01,-2.19,-7.94,-2.99,-8.72,-3.45,-9.92,-4.76,-10.75,-5.43,-11.60,-6.21,-11.12,-6.84,-12.78,-6.09,-13.81,-4.21,-14.78,-2.98,-15.02,-3.17,-15.39,-7.30,-11.67
2012-04-14 11:00,-6.34,-13.68,-6.72,-13.16,-4.85,-13.41,-5.80,-13.08,-5.26,-12.80,-4.91,-12.90,-4.52,-12.15,-3.49,-11.09,-2.61,-11.23,-3.98,-11.87,-6.70,-14.21,-8.95,-17.03,-7.52,-18.88,-5.06,-19.67,-4.55,-21.61,-4.46,-22.52,-4.50,-25.05,-4.45,-26.19,-4.18,-27.68,-5.16,-27.57,-4.72,-27.96
2012-04-14 12:00,-13.37,-21.27,-13.06,-21.91,-12.65,-22.20,-12.56,-22.80,-12.09,-22.96,-10.30,-23.97,-6.80,-22.43,-4.91,-20.15,-4.49,-19.80,-5.67,-20.39,-6.77,-22.53,-5.21,-26.44,-3.58,-29.90,-1.83,-31.44,-0.44,-31.84,0.74,-31.26,0.82,-29.86,-0.43,-28.90,-1.15,-27.97,-2.12,-26.92,-2.41,-25.02
2012-04-14 13:00,-6.11,-34.80,-5.06,-34.15,-6.05,-32.69,-7.42,-33.33,-7.55,-33.90,-6.64,-34.13,-6.40,-35.21,-5.99,-35.50,-6.12,-35.75,-6.97,-35.71,-8.33,-35.72,-10.23,-36.02,-11.18,-35.69,-11.45,-34.83,-12.46,-34.63,-11.86,-32.23,-11.59,-30.46,-10.86,-25.83,-9.93,-22.48,-8.38,-19.78,-6.95,-16.70
2012-04-14 14:00,-5.41,-20.20,-5.40,-21.56,-4.33,-21.64,-4.49,-21.80,-4.45,-23.88,-4.50,-25.69,-3.83,-27.15,-3.65,-28.35,-3.73,-29.11,-3.63,-29.40,-4.29,-28.98,-5.60,-29.50,-6.51,-28.95,-7.86,-28.65,-9.66,-27.96,-10.54,-28.14,-10.64,-27.85,-9.89,-26.56,-8.10,-24.63,-6.27,-23.10,-5.84,-21.49
2012-04-14 15:00,0.07,-16.98,-0.07,-17.55,0.08,-18.03,-0.50,-19.47,-1.17,-20.00,-1.48,-19.37,-2.66,-19.64,-2.18,-19.80,-2.85,-20.01,-3.63,-19.53,-5.44,-19.47,-7.68,-19.03,-8.79,-19.49,-9.40,-20.21,-9.80,-19.61,-9.48,-18.98,-8.67,-17.88,-7.02,-16.83,-6.39,-17.15,-4.67,-16.61,-3.04,-15.14
2012-04-14 16:00,2.98,-9.65,1.21,-11.37,0.70,-12.06,0.32,-11.86,0.62,-10.51,-0.58,-11.00,-2.07,-11.26,-3.74,-10.33,-6.32,-6.84,-7.02,-2.66,-6.04,0.17,-4.94,1.99,-4.67,0.82,-4.11,-0.26,-2.95,-0.31,-2.51,-1.01,-2.13,-1.21,-0.99,-0.84,0.19,-2.25,1.25,-3.27,1.29,-3.37
2012-04-14 17:00,-3.22,-2.08,-5.36,-3.92,-4.92,-3.67,-5.00,-5.06,-4.91,-5.34,-6.52,-5.23,-8.35,-4.76,-10.20,-3.57,-10.36,-1.42,-9.21,1.57,-7.29,3.76,-4.20,5.27,-1.83,5.40,-1.59,4.01,-1.16,3.62,-0.76,2.38,-0.61,1.59,-0.09,0.60,-0.57,0.13,-0.92,-0.40,-2.87,-2.18
2012-04-14 18:00,2.53,0.28,-0.70,-2.43,1.11,-2.48,1.40,-2.07,0.18,-0.57,-1.39,0.08,-1.99,2.30,-1.97,6.82,-0.77,9.31,1.99,9.87,3.60,9.44,5.29,8.41,5.73,7.71,5.63,5.37,5.98,5.27,6.27,5.36,5.60,4.83,6.20,4.92,5.94,4.73,5.57,5.24,2.25,2.82
2012-04-14 19:00,4.84,5.22,2.73,5.59,-2.64,6.30,-6.77,7.08,-7.88,9.56,-6.64,12.58,-5.15,14.84,-4.83,15.46,-4.00,15.83,-3.43,16.01,-3.09,15.60,-2.73,16.13,-2.41,16.76,-1.61,17.54,-2.04,15.93,-3.07,14.87,-3.17,14.21,-4.28,14.06,-3.84,13.36,-5.27,13.22,-7.51,11.04
2012-04-14 20:00,,,,,,,,,,,,,,,,,,,,,,,,,,,,,,,,,,,,,,,,,,
2012-04-14 21:00,12.40,0.60,10.17,1.04,8.73,2.58,5.50,2.49,2.22,2.60,-0.90,4.12,-2.98,4.72,-2.23,4.01,-0.87,4.03,0.85,4.26,2.54,3.22,4.01,1.59,5.40,1.51,6.85,1.24,5.80,1.22,5.95,0.43,6.11,0.59,5.35,0.34,5.25,-0.32,5.82,-0.14,4.13,-0.78
2012-04-14 22:00,25.55,-2.45,22.30,-2.44,19.11,-1.67,14.99,-2.88,12.95,-3.42,11.60,-2.81,10.31,-2.69,5.78,-0.68,2.71,1.70,1.62,2.83,4.12,2.89,5.64,1.07,6.83,-0.34,7.33,-0.92,6.84,-1.38,7.61,-1.14,7.39,-0.79,7.21,-0.22,7.39,-0.79,7.00,-1.86,5.21,-3.17
2012-04-14 23:00,-1.81,-15.06,-2.51,-13.50,-4.14,-14.34,-6.93,-15.12,-9.57,-13.44,-10.72,-12.45,-10.65,-12.01,-10.98,-10.64,-11.95,-9.90,-13.46,-8.81,-12.93,-9.16,-10.42,-11.09,-7.02,-12.53,-4.99,-13.98,-4.17,-14.24,-4.30,-14.49,-4.70,-14.20,-4.83,-14.45,-4.75,-15.06,-5.60,-15.33,-6.48,-14.88
2012-04-15 00:00,6.55,-14.28,7.82,-13.98,7.44,-13.79,7.41,-14.33,7.25,-13.85,5.80,-13.58,5.40,-12.66,4.33,-12.90,3.51,-12.63,2.28,-12.08,1.07,-12.57,1.37,-14.15,2.70,-16.04,4.42,-17.48,5.58,-18.48,5.19,-19.55,4.86,-20.18,5.41,-19.90,4.37,-19.28,4.33,-17.51,2.37,-15.31
2012-04-15 01:00,0.96,-28.35,0.84,-28.28,2.88,-26.79,3.36,-26.32,4.16,-26.18,4.86,-25.74,5.88,-24.68,6.21,-23.74,5.17,-21.13,4.98,-20.87,5.03,-22.01,6.20,-21.74,6.61,-22.35,5.14,-23.03,3.91,-23.42,2.82,-24.29,1.75,-24.22,0.52,-23.66,0.58,-23.54,0.19,-22.30,-0.03,-19.64
2012-04-15 02:00,-4.47,-28.09,-4.61,-28.97,-3.85,-26.42,-3.34,-28.67,-1.29,-28.86,0.62,-27.93,3.14,-26.29,3.94,-23.20,3.45,-22.31,2.51,-21.66,1.97,-21.63,1.78,-21.69,1.77,-22.32,2.21,-22.39,2.46,-22.83,3.12,-23.25,2.38,-21.92,0.20,-21.35,-1.50,-20.63,-2.65,-16.70,-2.58,-11.64
2012-04-15 03:00,-4.26,-31.70,-2.72,-32.25,-1.87,-32.30,1.23,-32.15,4.52,-29.63,5.30,-28.44,3.83,-27.12,1.76,-25.89,1.03,-25.91,-0.27,-25.80,-1.22,-25.79,-1.41,-26.17,-3.45,-25.03,-4.23,-24.23,-5.12,-24.41,-5.37,-23.97,-4.05,-24.81,-1.81,-24.93,0.18,-22.61,3.39,-19.49,5.70,-16.55
2012-04-15 04:00,,,,,,,,,,,,,,,,,,,,,,,,,,,,,,,,,,,,,,,,,,
2012-04-15 06:00,1.26,4.92,2.16,3.42,2.74,1.61,3.07,0.25,3.82,-0.14,5.77,-1.62,8.92,-1.98,9.97,-1.65,11.04,-0.05,13.01,1.00,12.68,2.05,10.61,3.91,8.78,6.69,9.38,8.77,10.61,8.53,11.74,8.26,13.74,8.90,16.12,9.03,17.54,9.17,17.29,9.30,15.55,9.16
2012-04-15 07:00,2.65,21.63,3.99,20.06,4.63,18.38,4.93,16.79,5.53,14.57,5.00,12.93,5.60,12.39,4.99,9.36,5.47,7.20,6.99,5.07,7.35,3.29,7.72,2.78,9.21,3.36,10.34,5.09,10.88,4.73,10.82,5.24,11.45,4.91,12.74,4.80,12.66,3.41,13.66,2.58,12.52,2.21
2012-04-15 08:00,-3.76,20.32,-4.56,18.91,-5.13,17.05,-6.81,16.09,-7.36,15.50,-7.04,15.81,-6.22,15.86,-3.68,13.52,-0.77,13.93,0.40,13.88,1.01,14.91,1.99,14.49,1.87,15.19,2.29,15.85,3.08,15.99,6.35,16.93,8.53,18.99,11.64,20.09,13.89,20.60,13.08,20.86,10.39,18.75
2012-04-15 09:00,-1.91,18.81,-1.73,17.61,-1.72,16.25,-1.41,13.30,-0.36,11.01,0.80,8.34,3.10,4.77,2.32,5.88,3.31,6.73,3.22,7.33,2.92,8.60,2.92,8.60,3.50,8.78,5.20,8.38,7.79,7.84,8.70,7.92,10.19,7.87,9.52,7.66,9.13,8.90,10.87,9.03,10.53,9.76
2012-04-15 10:00,-4.93,12.49,-4.28,11.76,-4.05,10.05,-4.44,8.98,-4.87,7.37,-2.98,6.71,0.50,4.36,2.66,2.53,4.43,0.26,5.49,-0.77,5.87,-0.64,6.84,-1.38,7.92,-1.78,9.49,-2.11,11.02,-3.94,11.35,-5.30,10.76,-4.44,9.37,-2.05,8.50,-0.33,9.75,0.70,6.41,3.93
2012-04-15 11:00,-10.84,8.30,-10.96,6.37,-11.56,5.97,-11.79,5.05,-11.26,4.70,-9.27,2.40,-6.70,-2.03,-5.03,-4.96,-3.90,-8.17,-2.27,-9.33,-2.20,-8.57,-2.61,-8.92,-2.19,-8.26,-0.48,-7.71,1.18,-6.97,2.41,-6.58,2.22,-6.64,1.47,-5.93,0.33,-6.61,-2.67,-5.78,-6.73,-2.25
2012-04-15 12:00,-3.21,-8.69,-4.23,-11.43,-5.43,-11.92,-4.84,-12.15,-5.12,-14.23,-5.82,-16.97,-6.90,-19.84,-6.44,-21.26,-4.11,-19.68,-3.01,-17.55,-2.75,-17.36,-2.65,-16.38,-2.39,-16.51,-1.37,-15.76,-1.36,-15.13,-0.56,-13.72,-0.73,-12.20,-1.99,-12.18,-4.26,-11.65,-7.04,-11.48,-10.24,-9.67
2012-04-15 13:00,-7.29,-13.35,-8.43,-16.34,-9.02,-17.47,-11.02,-18.42,-12.03,-20.53,-11.18,-23.51,-10.89,-25.41,-10.81,-26.65,-10.92,-25.00,-10.78,-22.13,-8.94,-21.33,-6.76,-21.58,-3.45,-22.09,-2.06,-22.81,-2.80,-23.15,-4.01,-21.96,-6.30,-20.38,-7.65,-19.13,-9.48,-19.30,-10.31,-17.36,-10.17,-16.16
2012-04-15 14:00,-6.18,-23.39,-6.58,-27.40,-6.93,-29.61,-6.63,-31.51,-6.84,-32.52,-8.36,-30.38,-8.50,-28.64,-7.29,-28.46,-7.01,-28.37,-6.19,-28.95,-5.15,-29.57,-4.64,-29.19,-4.48,-29.04,-6.30,-29.93,-7.15,-29.89,-8.71,-28.29,-9.36,-27.24,-10.39,-25.99,-9.45,-24.01,-9.96,-24.38,-9.81,-22.55
2012-04-15 15:00,-9.67,-21.67,-9.45,-22.02,-9.40,-22.52,-9.10,-24.11,-8.61,-25.32,-10.17,-26.34,-12.84,-24.57,-14.65,-22.52,-14.57,-21.13,-13.35,-20.01,-12.72,-20.01,-12.52,-21.63,-11.22,-23.73,-9.51,-24.13,-8.84,-23.61,-7.90,-23.93,-7.10,-23.15,-5.53,-22.13,-3.71,-22.60,-0.91,-21.81,1.84,-19.57
2012-04-15 16:00,-4.33,-14.71,-5.03,-15.15,-5.02,-14.51,-4.92,-16.16,-4.39,-16.52,-5.39,-15.68,-7.45,-13.50,-8.47,-12.26,-8.88,-9.66,-8.16,-7.33,-8.36,-8.34,-8.53,-9.44,-7.51,-11.00,-7.34,-12.52,-7.65,-14.20,-7.32,-15.56,-4.56,-15.63,-0.98,-14.69,2.45,-13.28,3.85,-13.05,7.10,-13.37
2012-04-15 17:00,0.70,-2.19,0.71,-3.55,0.30,-3.58,-0.09,-4.65,0.07,-4.49,-0.60,-2.08,-2.27,0.54,-3.78,3.62,-4.90,5.15,-5.29,6.71,-4.28,6.51,-3.56,3.90,-2.58,3.80,-4.02,2.08,-4.40,-0.04,-0.95,-2.61,2.05,-5.75,3.71,-6.37,4.21,-7.26,5.21,-8.42,6.93,-9.23
2012-04-15 18:00,,,,,,,,,,,,,,,,,,,,,,,,,,,,,,,,,,,,,,,,,,
2012-04-15 19:00,11.06,14.34,6.81,13.20,3.06,11.79,0.80,10.96,-0.18,10.75,-0.35,9.97,-0.59,10.41,-0.33,11.55,-0.33,13.86,-0.99,14.28,-0.52,13.80,0.39,12.93,1.86,11.61,3.61,10.39,3.25,9.54,3.39,7.80,2.81,6.67,2.11,6.87,1.16,6.88,0.24,6.16,-0.50,5.51
2012-04-15 20:00,,,,,,,,,,,,,,,,,,,,,,,,,,,,,,,,,,,,,,,,,,
2012-04-15 21:00,,,,,,,,,,,,,,,,,,,,,,,,,,,,,,,,,,,,,,,,,,
2012-04-15 22:00,,,,,,,,,,,,,,,,,,,,,,,,,,,,,,,,,,,,,,,,,,
2012-04-15 23:00,-1.92,-4.18,-1.74,-5.07,-1.70,-4.53,-1.42,-5.07,-1.34,-3.05,-0.10,1.96,-1.34,6.82,-3.28,8.30,-5.16,6.64,-4.29,5.87,-2.21,5.28,-3.92,5.05,-4.07,3.21,-1.25,1.28,1.84,0.48,4.37,0.77,4.34,0.55,4.81,0.38,3.24,1.35,3.11,1.10,2.52,1.96
2012-04-16 00:00,-8.58,-10.93,-7.04,-11.17,-6.06,-11.59,-4.42,-11.80,-3.32,-12.29,-1.86,-11.93,-1.06,-11.15,1.15,-9.19,3.54,-7.48,2.43,-7.62,1.33,-10.07,2.54,-11.58,1.44,-13.40,0.37,-15.63,0.28,-17.65,1.34,-18.68,2.41,-19.07,2.51,-19.04,1.25,-18.39,1.32,-17.63,0.54,-16.83
2012-04-16 01:00,-7.28,-17.96,-5.58,-15.74,-4.00,-13.14,-2.21,-11.83,-1.53,-13.61,0.03,-14.90,1.48,-15.17,-1.82,-16.33,-4.45,-16.64,-4.97,-17.65,-4.11,-20.00,-3.98,-22.06,-3.57,-24.65,-2.42,-25.65,-2.76,-27.54,-2.56,-29.16,-3.00,-29.09,-4.00,-28.25,-4.59,-27.08,-4.76,-26.19,-4.87,-24.86
2012-04-16 02:00,-19.00,-17.09,-19.13,-17.34,-17.75,-17.74,-16.15,-16.49,-13.63,-14.85,-12.63,-13.37,-10.91,-14.82,-9.88,-15.75,-9.64,-16.83,-9.09,-18.23,-7.82,-20.23,-7.09,-22.84,-5.76,-25.04,-5.69,-26.90,-6.65,-27.52,-6.99,-26.79,-7.93,-26.46,-8.24,-26.14,-9.05,-25.25,-10.77,-23.49,-10.81,-19.41
2012-04-16 03:00,-21.28,-14.24,-18.95,-14.97,-17.94,-18.11,-12.80,-16.79,-10.10,-18.34,-10.01,-20.93,-10.18,-22.04,-10.28,-22.07,-11.07,-22.53,-9.75,-22.74,-8.88,-24.14,-9.18,-27.49,-8.57,-29.71,-9.17,-29.80,-10.47,-29.37,-12.80,-28.96,-13.46,-28.23,-13.69,-29.14,-14.04,-29.36,-12.91,-27.32,-11.12,-23.70
2012-04-16 04:00,-13.62,-6.66,-12.74,-9.42,-11.33,-12.85,-10.04,-15.91,-7.37,-17.36,-5.15,-17.07,-4.91,-18.15,-5.96,-18.17,-5.68,-19.03,-5.22,-19.51,-4.37,-20.18,-3.60,-21.62,-3.17,-22.63,-3.18,-23.58,-2.24,-24.54,-3.30,-25.51,-3.08,-25.55,-2.42,-26.28,0.04,-26.44,2.59,-25.21,6.51,-22.70
2012-04-16 05:00,-8.34,2.80,-8.79,2.23,-9.40,1.51,-9.70,-1.52,-9.61,-4.43,-8.37,-6.66,-6.33,-10.10,-5.57,-12.48,-6.77,-12.66,-7.77,-11.51,-8.13,-12.36,-8.26,-15.23,-8.62,-16.40,-9.15,-18.04,-10.43,-19.60,-11.49,-20.88,-12.00,-20.62,-12.69,-20.11,-10.90,-18.80,-7.81,-17.29,-5.09,-14.32
2012-04-16 06:00,0.71,-4.18,1.69,-6.60,2.03,-9.64,1.94,-9.35,0.46,-8.36,-0.90,-8.37,-0.76,-10.11,-1.48,-11.81,-2.45,-13.69,-3.00,-14.60,-3.23,-15.20,-3.97,-16.49,-4.39,-16.83,-4.59,-17.21,-3.34,-16.18,-0.20,-12.87,1.53,-9.06,3.34,-8.17,4.06,-8.78,4.12,-8.97,3.54,-9.79
2012-04-16 07:00,8.43,6.47,6.80,4.69,5.43,2.05,4.01,-0.40,3.75,-0.90,3.02,-1.24,2.36,-0.82,1.49,0.27,0.96,0.94,0.50,2.05,-0.62,0.96,-2.53,-0.28,-3.68,-0.96,-3.70,-2.55,-3.04,-2.97,-1.05,-2.64,1.42,-2.49,3.13,-2.89,4.16,-3.82,5.33,-3.23,5.50,-2.44
2012-04-16 08:00,17.80,9.67,13.58,8.74,11.26,10.10,9.20,9.97,8.33,8.43,9.06,6.15,9.50,3.14,7.37,2.56,6.92,4.62,8.11,5.84,8.52,6.18,6.71,7.60,5.84,9.32,4.20,11.52,2.86,13.40,2.46,14.01,1.24,12.89,2.69,9.99,4.11,9.50,5.71,8.43,7.56,7.24
2012-04-16 09:00,9.66,16.10,6.99,17.24,5.00,17.55,3.79,19.05,2.46,18.94,1.32,19.21,-0.21,17.78,-0.19,17.05,0.29,17.52,1.71,19.65,3.17,22.63,4.35,23.85,4.68,24.80,3.11,25.13,3.38,24.59,3.65,23.42,3.42,22.51,3.26,22.03,1.85,20.85,0.81,18.52,1.06,16.08
2012-04-16 10:00,3.84,12.98,1.92,14.36,0.80,15.26,0.02,16.07,-0.36,16.26,0.35,14.70,1.02,12.92,0.10,12.84,-0.06,12.37,1.14,9.92,2.08,8.95,3.34,8.94,6.29,9.88,8.92,10.20,10.42,11.41,10.44,12.36,9.64,11.58,8.59,11.56,7.06,10.44,4.90,9.65,1.37,10.51
2012-04-16 11:00,2.51,13.50,2.30,14.49,-0.06,14.99,-2.06,14.67,-4.33,14.89,-5.67,13.83,-7.37,12.55,-8.46,13.36,-7.99,12.88,-7.24,12.81,-5.76,11.81,-3.16,10.22,0.28,9.64,2.65,9.45,2.70,8.31,2.07,8.32,1.40,8.11,1.68,7.57,2.34,7.15,2.40,6.96,2.49,6.36
2012-04-16 12:00,-2.65,7.66,-1.96,10.08,-2.89,11.04,-6.89,12.71,-8.34,13.29,-8.30,13.83,-10.75,12.31,-12.32,10.66,-13.45,11.56,-14.85,11.32,-14.45,10.40,-12.75,9.37,-10.54,7.03,-7.07,5.72,-5.87,5.58,-6.68,6.47,-7.89,6.30,-8.24,6.40,-8.57,5.14,-8.75,5.71,-8.40,6.24
2012-04-16 13:00,-2.84,-11.51,-0.61,-10.59,-0.88,-9.10,-2.81,-6.67,-3.72,-3.81,-6.17,-2.70,-6.05,-3.08,-5.97,-2.01,-7.12,-0.38,-8.68,-0.77,-11.04,-2.58,-14.34,-6.05,-15.39,-8.69,-15.17,-8.72,-12.04,-11.29,-9.32,-13.89,-7.83,-15.93,-6.85,-16.04,-8.05,-13.91,-8.33,-13.05,-8.79,-11.94
2012-04-16 14:00,-15.99,-16.02,-15.74,-13.84,-14.64,-12.34,-13.95,-10.23,-14.08,-8.17,-15.69,-8.05,-16.73,-9.75,-19.11,-10.19,-22.63,-11.32,-24.14,-13.48,-23.13,-15.67,-20.63,-17.92,-18.30,-20.95,-15.86,-23.33,-14.34,-25.78,-13.46,-26.23,-13.48,-25.51,-14.39,-24.96,-14.14,-24.77,-14.47,-23.41,-13.57,-22.60
2012-04-16 15:00,-20.50,-27.54,-19.05,-28.12,-17.20,-27.01,-16.72,-26.22,-14.42,-24.23,-13.79,-21.93,-12.81,-20.04,-13.56,-16.71,-13.98,-14.75,-15.25,-12.74,-15.43,-14.16,-13.52,-18.49,-10.77,-20.86,-9.24,-22.68,-7.20,-23.82,-4.77,-24.51,-3.66,-24.37,-3.92,-24.55,-4.53,-25.27,-4.17,-26.42,-4.76,-25.87
2012-04-16 16:00,-10.03,-12.33,-11.40,-11.30,-13.02,-11.19,-14.34,-11.30,-16.09,-12.06,-17.18,-12.62,-18.70,-13.42,-18.24,-14.54,-17.37,-15.62,-14.57,-16.83,-11.78,-18.35,-8.62,-19.02,-6.73,-19.05,-6.19,-19.09,-6.30,-20.38,-6.73,-21.67,-6.72,-23.35,-6.04,-24.50,-5.52,-25.80,-4.36,-26.79,-3.42,-24.81
2012-04-16 17:00,-9.91,-18.28,-7.95,-18.18,-8.15,-16.88,-7.83,-16.57,-7.91,-14.70,-11.39,-7.41,-10.96,-8.75,-10.81,-12.16,-9.78,-13.09,-9.34,-13.48,-7.21,-14.90,-6.10,-17.06,-3.55,-18.14,-2.79,-17.90,-1.81,-18.00,-2.34,-17.33,-2.55,-18.66,-2.19,-20.12,-2.11,-21.67,-2.26,-20.56,-1.82,-18.95
2012-04-16 18:00,-1.70,-9.15,-0.36,-8.41,0.59,-8.42,1.93,-7.36,2.08,-5.53,0.50,-3.20,-0.87,1.09,-2.04,3.76,0.01,0.63,1.15,-1.63,1.84,-4.13,3.32,-7.44,3.33,-9.12,3.63,-10.70,5.12,-10.44,4.47,-11.70,3.79,-12.86,3.50,-13.26,4.36,-12.67,5.17,-11.26,7.89,-11.23
2012-04-16 20:00,-0.15,7.72,1.77,7.60,3.36,7.89,3.97,6.62,6.87,7.76,9.27,9.78,10.72,12.45,8.87,18.26,5.25,19.73,5.97,19.12,5.51,20.55,4.64,21.64,5.48,20.64,5.82,19.91,5.23,18.47,5.48,17.70,6.23,15.01,7.45,13.82,7.82,13.31,8.96,12.73,10.10,10.78
2012-04-16 21:00,-0.83,14.43,0.76,12.74,2.49,13.91,3.80,15.07,4.58,16.58,4.47,18.22,5.38,20.30,6.89,22.14,7.21,24.77,6.67,24.17,6.17,22.44,6.58,20.16,6.79,16.86,5.86,15.52,5.70,15.68,5.30,16.28,4.33,16.71,5.11,16.54,5.04,15.46,6.19,14.47,6.93,10.51
2012-04-16 22:00,-1.29,12.92,0.84,11.50,3.83,12.66,5.78,12.13,7.53,10.28,8.43,11.40,10.14,13.94,11.27,15.98,10.81,16.78,10.18,16.79,8.94,16.71,8.40,16.12,7.64,16.19,5.62,16.28,3.40,16.31,1.24,15.51,-0.17,16.32,0.39,15.55,0.86,15.39,1.54,14.24,2.80,13.59
2012-04-16 23:00,-5.38,19.17,-4.09,14.13,-2.33,10.59,-1.01,7.44,-0.27,6.11,0.69,4.42,2.49,4.36,4.82,5.95,6.72,8.86,6.87,10.06,5.45,10.56,4.88,10.69,4.07,11.27,3.47,11.81,2.97,12.07,3.68,13.46,2.73,13.15,2.35,12.71,1.06,11.47,1.44,11.27,0.80,10.33
2012-04-17 00:00,13.87,16.39,11.38,14.34,6.70,12.22,4.07,9.28,1.40,5.48,0.69,2.11,0.83,-1.62,2.30,-5.88,2.73,-8.89,3.98,-10.49,3.38,-10.26,3.33,-9.44,2.99,-8.39,3.74,-6.78,3.78,-5.93,3.46,-6.24,2.56,-7.69,1.29,-8.30,0.58,-8.74,-0.59,-8.69,0.15,-8.03
2012-04-17 01:00,3.18,6.16,-0.33,6.61,-6.52,9.26,-8.14,6.11,-9.25,3.34,-10.11,-1.86,-11.38,-6.78,-10.17,-10.91,-8.60,-14.50,-7.40,-14.64,-7.15,-12.78,-6.31,-10.83,-6.74,-10.44,-5.67,-10.21,-4.24,-10.38,-4.28,-10.92,-5.45,-10.87,-6.30,-10.20,-6.51,-9.85,-7.89,-10.81,-8.73,-9.82
2012-04-17 02:00,-4.45,-4.47,-8.01,-2.87,-11.91,-1.18,-14.19,-4.21,-13.95,-7.28,-15.05,-12.36,-14.49,-17.43,-11.42,-22.75,-7.87,-24.35,-6.98,-24.17,-6.43,-23.26,-6.61,-22.37,-7.01,-21.13,-7.19,-20.88,-7.92,-20.58,-7.16,-20.65,-7.44,-20.43,-8.11,-20.64,-9.42,-21.48,-10.80,-21.08,-10.98,-20.19
2012-04-17 03:00,3.68,-11.53,-0.37,-9.04,-3.41,-6.76,-6.17,-7.64,-9.30,-10.00,-9.85,-13.22,-10.48,-20.45,-9.10,-26.73,-7.90,-28.87,-7.41,-28.08,-8.25,-26.78,-8.43,-25.89,-8.59,-23.74,-7.82,-23.18,-7.44,-23.05,-7.36,-23.66,-7.23,-23.72,-8.69,-23.77,-9.58,-24.58,-9.76,-24.00,-8.80,-22.44
2012-04-17 04:00,0.17,-11.70,-2.49,-9.30,-6.27,-8.30,-6.25,-11.65,-7.85,-12.90,-10.35,-13.28,-12.10,-16.04,-10.17,-18.78,-9.98,-21.03,-9.29,-21.23,-8.76,-22.22,-8.50,-21.40,-7.58,-21.63,-5.85,-22.13,-3.55,-23.07,-3.08,-22.92,-3.43,-23.14,-6.81,-23.38,-9.27,-24.90,-9.35,-25.97,-8.62,-23.96
2012-04-17 05:00,8.71,-16.43,6.39,-17.06,2.08,-15.71,0.54,-16.83,-2.09,-17.15,-5.07,-20.30,-5.96,-21.11,-8.35,-21.87,-8.87,-23.19,-10.80,-23.07,-12.26,-23.44,-13.87,-23.64,-15.60,-22.51,-16.85,-21.86,-17.50,-22.80,-16.34,-24.11,-14.92,-26.28,-12.05,-27.36,-9.73,-26.09,-7.05,-26.60,-4.91,-22.77
2012-04-17 06:00,13.43,-15.45,9.05,-16.53,4.51,-15.46,2.96,-16.17,0.91,-17.97,-0.13,-19.99,-0.93,-20.45,-1.47,-20.73,-3.09,-19.25,-7.14,-16.45,-10.60,-12.51,-12.33,-11.70,-16.02,-10.99,-17.48,-11.98,-18.57,-13.17,-18.56,-14.21,-16.95,-14.65,-14.95,-14.32,-12.14,-14.58,-11.08,-15.29,-8.15,-11.94
2012-04-17 07:00,11.49,-14.28,9.26,-15.52,5.60,-17.21,-0.62,-18.78,-1.26,-19.40,-0.54,-17.07,0.47,-14.96,0.42,-11.52,-1.53,-8.04,-1.95,-6.71,-0.53,-4.58,-0.67,-3.15,-0.90,-3.75,-0.65,-4.20,1.21,-4.44,2.65,-5.35,3.25,-5.89,3.62,-6.09,5.17,-6.01,5.93,-6.08,5.77,-6.24
2012-04-17 08:00,6.20,-6.94,5.56,-5.26,5.24,-0.95,4.58,-0.22,4.28,1.05,5.29,3.47,6.90,5.67,6.15,8.37,6.70,9.28,7.65,9.90,7.65,9.90,7.80,9.10,7.62,7.05,9.09,5.73,9.61,4.75,9.82,3.76,10.80,3.34,11.42,3.02,11.99,2.57,11.89,2.22,11.20,0.43
2012-04-17 09:00,,,,,,,,,,,,,,,,,,,,,,,,,,,,,,,,,,,,,,,,,,
2012-04-17 10:00,4.88,8.07,4.43,10.13,0.85,9.82,-4.00,11.53,-5.59,12.60,-5.40,12.97,-5.37,12.88,-5.63,14.68,-5.83,16.30,-4.23,17.86,-2.73,18.76,-2.00,19.10,-1.48,17.79,-2.23,16.19,-2.82,14.43,-2.70,14.04,-2.99,13.32,-4.18,12.10,-4.50,11.47,-5.07,11.29,-4.41,11.19
2012-04-17 11:00,6.81,3.64,6.55,5.13,4.71,7.28,4.65,7.15,1.78,10.22,-0.25,12.31,0.57,12.36,3.74,12.63,7.12,12.56,8.16,12.58,8.80,13.20,10.59,12.20,10.15,9.64,8.03,7.08,6.84,5.54,5.63,4.73,5.49,3.85,4.86,4.18,4.52,4.59,4.00,3.59,2.24,4.49
2012-04-17 12:00,3.02,-5.86,2.94,-2.31,2.67,0.85,5.81,-0.77,7.87,-0.64,10.59,-0.29,11.50,-0.53,11.60,-0.81,11.30,-1.54,11.27,-1.44,11.05,-1.72,10.28,-4.59,9.63,-6.48,8.73,-7.61,8.25,-7.44,7.72,-7.40,7.18,-7.37,7.00,-6.79,5.75,-7.51,4.81,-7.18,4.18,-7.17
2012-04-17 13:00,-14.40,-2.91,-14.01,-2.16,-11.35,2.99,-10.35,1.52,-8.64,1.76,-8.74,3.72,-8.51,4.95,-7.28,4.71,-3.60,3.05,-1.07,2.70,1.16,1.63,2.88,-0.13,2.53,0.28,2.20,-0.98,0.97,-3.36,-0.63,-4.93,-1.72,-5.80,-1.99,-4.94,-3.47,-4.26,-3.74,-3.40,-4.34,-2.85